Simultaneous Nadir Overpasses (SNOs) Predictions

Prediction of SNOs between NPP and TERRA Satellite Orbit:

Table of predicted SNOs for the next 14.0 days since TLE Epoch: 11/19/2012
Index Date (NPP) Time (NPP) Lat,Lon (NPP) SZA (NPP ) Date (TERRA) Time (TERRA) Lat,Lon (TERRA) SZA (TERRA ) Distance(km) Time Diff (sec)
1 11/20/2012 20:01:46 -68.18, 57.89 92.02 11/20/2012 20:02:32 -68.20, 57.85 92.00 2.42 46
2 11/20/2012 20:52:30 68.06,-134.65 87.87 11/20/2012 20:51:59 68.09,-134.63 87.90 3.41 31
3 11/20/2012 21:42:53 -66.94, 34.01 93.22 11/20/2012 21:41:46 -67.03, 31.81 93.17 95.86 67
4 11/23/2012 11:28:13 69.05, 5.19 89.41 11/23/2012 11:29:21 68.91, 6.97 89.29 72.89 68
5 11/23/2012 12:18:40 -68.15, 173.69 91.48 11/23/2012 12:19:03 -68.14, 173.66 91.49 2.23 23
6 11/23/2012 13:09:24 68.03, -18.85 88.42 11/23/2012 13:08:30 68.02, -18.83 88.40 1.30 54
7 11/26/2012 03:44:53 68.23, 122.05 89.12 11/26/2012 03:46:04 68.21, 121.99 89.10 3.36 71
8 11/26/2012 04:35:34 -68.09, -70.45 91.02 11/26/2012 04:35:34 -68.11, -70.50 91.00 3.20 0
9 11/26/2012 05:26:16 67.86, 97.14 88.76 11/26/2012 05:25:03 67.88, 96.88 88.78 11.25 73
10 11/28/2012 20:01:48 68.23,-122.18 89.59 11/28/2012 20:02:34 68.21,-122.14 89.57 2.72 46
11 11/28/2012 20:52:29 -68.08, 45.33 90.55 11/28/2012 20:52:05 -68.05, 45.31 90.59 3.46 24
12 11/28/2012 21:42:55 66.99,-146.05 88.38 11/28/2012 21:41:48 67.03,-148.19 88.40 93.10 67
13 12/01/2012 11:28:15 -69.20,-175.02
